LogoCoinalyze
    Ad-Free Version Anasayfa Piyasalar Fonlama Oranları
    Vadeli işlem verileri
    • Toplulaştırılmış veriler (Madeni Paralar)
    • Bireysel grafikler
    • Küresel grafikler
    Alarmlar
    TA
    Bitcoin Ethereum BNB Ripple Tron ZCash Dogecoin Monero UNUS SED LEO Chainlink Cardano Stellar Lumens Bitcoin Cash Litecoin Hedera Cronos Polkadot Ethereum Classic Algorand Quant Cosmos VeChain Dash Bitcoin SV BitTorrent Terra Decred Tezos Iota The Graph THETA Decentraland NEO Chiliz MultiversX Golem Basic Attention Token Horizen Qtum 0x DigiByte Beam RIF Token FTX Token Holo FUNToken Zilliqa Ontology Nano aelf Enjin Coin Ravencoin Mask Network Siacoin Verge Status WINk Waves IoTeX iExec RLC Power Ledger Steem Kyber Network Crystal Lisk Ark Ardor WOO Network IOST WAX Icon Storj Loopring Wanchain Bitcoin Diamond AdEx Bitcoin Gold Augur OmiseGO NEM MonaCoin BitShares Ren Komodo V Systems Nuls Mithril SOLVE Maker EOS Aion Nebulas HedgeTrade Bread Fetch.ai TomoChain Polygon Fantom Waltonchain GXChain Bytom Metaverse ETP MaidSafeCoin QASH
    Sırala:
    Daha
    • API
    • Mum Desenleri
    • Bağış
    • İletişim
    • Site Haritası
    • Gizlilik Politikası
    • Sorumluluk Reddi Beyanı
    • Theme:
    Türkçe
    • English
    • Français
    • Русский
    • Deutsch
    • Nederlands
    • Português (BR)
    • Español
    • 한국어
    • 简体中文
    • 日本語
     
    Giriş / Kaydol
    Markets/ Pepe/ PEPE ve EUR/ PEPEEUR Binance
    İşlemler
    WL
    Sohbet
    İstatistikler
    Haberler
    ⦷
    AAA
    0.00000293 3730510.00000000 15:58:14
    0.00000294 38432267.00000000 15:58:05
    0.00000293 2235636.00000000 15:57:44
    0.00000293 1990371.00000000 15:57:14
    0.00000293 2382560.00000000 15:56:39
    0.00000293 1921946.00000000 15:56:14
    0.00000294 24100111.00000000 15:56:00
    0.00000293 2434807.00000000 15:55:49
    0.00000293 2397850.00000000 15:55:14
    0.00000293 2491098.00000000 15:54:59
    0.00000293 1779715.00000000 15:54:34
    0.00000294 31299928.00000000 15:54:30
    0.00000293 1458932.00000000 15:54:14
    0.00000293 1696757.00000000 15:53:59
    0.00000293 1374653.00000000 15:53:44
    0.00000293 2507464.00000000 15:53:14
    0.00000293 3343123.00000000 15:53:04
    0.00000294 13394795.00000000 15:52:53
    0.00000293 4694135.00000000 15:52:14
    0.00000294 18211828.00000000 15:52:05
    0.00000293 1764206.00000000 15:51:59
    0.00000293 3950864.00000000 15:51:14
    0.00000294 16678485.00000000 15:51:10
    0.00000293 2576758.00000000 15:51:04
    0.00000293 1941955.00000000 15:50:39
    0.00000294 2881932.00000000 15:50:14
    0.00000295 2456330.00000000 15:50:07
    0.00000293 3804759.00000000 15:49:54
    0.00000294 5171702.00000000 15:49:14
    0.00000295 35090437.00000000 15:49:06
    0.00000294 1995534.00000000 15:48:39
    0.00000295 29242031.00000000 15:48:20
    0.00000294 312149261.00000000 15:48:15
    0.00000294 1741404.00000000 15:48:14
    0.00000294 4467979.00000000 15:47:54
    0.00000295 16856849.00000000 15:47:28
    0.00000294 4814472.00000000 15:47:14
    0.00000294 2084486.00000000 15:46:49
    0.00000294 24322100.00000000 15:46:41
    0.00000294 33155153.00000000 15:46:19
    0.00000293 3651030.00000000 15:46:14
    0.00000293 3414254.00000000 15:45:54
    0.00000295 11163351.00000000 15:45:48
    0.00000295 7125543.00000000 15:45:42
    0.00000294 29346600.00000000 15:45:37
    0.00000294 37462757.00000000 15:45:24
    0.00000293 4403908.00000000 15:45:14
    0.00000293 3862213.00000000 15:45:04
    0.00000294 36585743.00000000 15:44:51
    0.00000293 2582729.00000000 15:44:39
    0.00000294 33960251.00000000 15:44:33
    0.00000293 2345932.00000000 15:44:14
    0.00000294 33813008.00000000 15:44:14
    0.00000294 10835972.00000000 15:43:57
    0.00000293 1639092.00000000 15:43:54
    0.00000294 335948454.00000000 15:43:50
    0.00000295 14308915.00000000 15:43:40
    0.00000293 2128385.00000000 15:43:14
    0.00000294 19241034.00000000 15:42:55
    0.00000294 63.00000000 15:42:49
    0.00000294 29339900.00000000 15:42:49
    0.00000293 1972399.00000000 15:42:44
    0.00000294 30517103.00000000 15:42:25
    0.00000292 1924628.00000000 15:42:14
    0.00000293 31457622.00000000 15:42:05
    0.00000293 1792434.00000000 15:41:56
    0.00000292 2591386.00000000 15:41:49
    0.00000292 1918636.00000000 15:41:14
    0.00000293 32427127.00000000 15:41:12
    0.00000292 2548872.00000000 15:41:04
    0.00000292 2166475.00000000 15:40:34
    0.00000293 33426512.00000000 15:40:22
    0.00000292 946914.00000000 15:40:14
    0.00000292 2395722.00000000 15:39:39
    0.00000292 1273631.00000000 15:39:14
    0.00000292 6981379.00000000 15:38:59
    0.00000293 34456696.00000000 15:38:55
    0.00000293 27684903.00000000 15:38:41
    0.00000292 7250706.00000000 15:38:14
    0.00000292 4620183.00000000 15:38:04
    0.00000292 3567528.00000000 15:37:44
    0.00000292 4971694.00000000 15:37:14
    0.00000292 6030211.00000000 15:37:04
    0.00000292 6346234.00000000 15:36:34
    0.00000292 2998328.00000000 15:36:14
    0.00000293 35643604.00000000 15:35:49
    0.00000292 7130137.00000000 15:35:39
    0.00000293 24247350.00000000 15:35:33
    0.00000293 5499971.00000000 15:35:14
    0.00000293 32989592.00000000 15:35:04
    0.00000292 17346592.00000000 15:34:49
    0.00000293 33662848.00000000 15:34:35
    0.00000292 15818971.00000000 15:34:14
    0.00000292 662579230.00000000 15:34:06
    0.00000292 176597100.00000000 15:34:06
    0.00000292 851378291.00000000 15:34:06
    0.00000292 1197107.00000000 15:34:04
    0.00000291 827721.00000000 15:33:39
    0.00000291 640747.00000000 15:33:14
    0.00000291 1016351.00000000 15:32:44
    Çıkış
    AAA
    Yardım
    🙂 🤣 😎 🤗 😛 😉 😜 🤑 🤔 😑 😴 😕 🙃 😲 😇 🙁 😢 😬 😟 😠 🕺 🏃 💪 ✌ 👌 👍 👎 👏 👋 🤝 🍺 🍻 🐋 🐟 🦈 🗽 🚄 ✈ 🛑 🚀 🏦 🌚 ⭐ 🌞 ⚡ 🏆 💰 💲 🔨 ❓ ❗ 💯 🔶 🏁
    ☺
    Giriş veya Kaydol ve sohbet
    24 Saat
    Değişim
    -3.30%
    Hacim
    119,856,142,261
    Yüksek
    0.00000303
    Düşük
    0.00000290
    7 Gün
    Değişim
    -10.40%
    Hacim
    1,425,831,618,853
    Yüksek
    0.00000343
    Düşük
    0.00000290
    30 Gün
    Değişim
    +16.73%
    Hacim
    2,854,215,092,402
    Yüksek
    0.00000388
    Düşük
    0.00000219
    Pepe price rallies 25% as whale demand and futures interest surge
    Key takeaways Pepe has gained 25% this week, including a combined 22% advance over the previous two days. Seven whale transactions worth more than $1 million each occurred Thursday, the highest...
    coinjournal.net
    Aug 21, 2026 08:41
    PEPE Supply on Exchanges Just Took a Massive Hit – What’s Next?
    A drop in PEPE exchange balances has added to bullish expectations despite muted trader interest.
    cryptopotato.com
    Aug 6, 2026 20:02
    PEPE Exchange Outflows Hit Nearly 2-Year High as Whales Accumulate
    Pepe (PEPE) recorded its largest single-day exchange outflow since November 2024, with 4.54 trillion tokens leaving trading platforms, signaling that holders are moving supply away from immediate...
    beincrypto.com
    Aug 6, 2026 04:57
    Meme Coin Based on White House Shooter Conspiracy Rallies 320%
    $HENRY surged 300% after a 2023 Pepe tweet appeared to name the White House shooter, fueling a viral time-travel meme. The post Meme Coin Based on White House Shooter Conspiracy Rallies 320%...
    beincrypto.com
    Apr 27, 2026 16:11
    PEPE surges 4% as market sentiment improves, eyes Key resistance breakout
    Key takeaways Pepe extends gains on Wednesday, stretching its rally from the 50-day EMA. Derivatives data show heightened retail activity as risk-on sentiment returns to the market. Pepe (PEPE) is...
    coinjournal.net
    Apr 22, 2026 11:44
    Why The PEPE Price Could Stage A 55X Rally To Reach New $0.0001 ATH
    The PEPE price has now started to edge back into bullish conversations after the recent inflows into the crypto market. The last time PEPE’s weekly chart printed the kind of structure now...
    newsbtc.com
    Apr 21, 2026 15:30
    Pepe (PEPE) surges 9%, drawing interest from whales
    Key takeaways PEPE is up 9% in the last 24 hours, making it one of the best performers among the top 50 cryptocurrencies by market cap. The rally comes amid renewed interest from whales and retail...
    coinjournal.net
    Apr 16, 2026 07:40
    Murad Says SPX6900 (SPX) Is Primed for a Rally — Is He Right This Time?
    Crypto influencer Murad Mahmudov claims SPX6900 (SPX) is stabilizing at the same market cap level where Dogecoin (DOGE) and Pepe (PEPE) consolidated before their explosive rallies. The...
    beincrypto.com
    Apr 5, 2026 21:36
    The Shiba Inu Of This Cycle: Analyst Shares Why It Is Better To Buy PEPE Now
    In the bull market cycle of 2021-2022, the Shiba Inu meme coin made waves in a way that changed the face of meme coins forever. This came after Dogecoin’s initial 36,000% rally, and Shiba Inu...
    newsbtc.com
    Apr 4, 2026 07:30
    PEPE Explodes by 18% Amid Altcoin Rally, BTC Tapped $74K: Market Watch
    The frog-themed meme coin is today's biggest gainer, followed by TAO, DOT, and BONK.
    cryptopotato.com
    Mar 16, 2026 10:56
    Should PEPE traders brace for volatility as short squeeze potential builds?
    The memecoin market has seen its collective market capitalization drop by 48% over the past year, and 6.9% over the past month, according to CoinMarketCap. According to Glassnode, the memecoin...
    ambcrypto.com
    Mar 7, 2026 18:00
    Komutu sohbete yazmanız yeterlidir. Takma ad1'i gerçek takma adla değiştirin.
    • /ignore nick1 Sohbet kullanıcısını engelle
    • /unignore nick1 Sohbet kullanıcısının engelini kaldır.
    • /ignorelist Engellediğiniz sohbet kullanıcılarını gösterin